Regional Weather Roundup
Issued by NWS

Home | Current Version | Previous Version | Graphics & Text | Print | Product List | Glossary On
Versions: 1 2 3 4 5 6 7 8 9 10 11 12 13 14 15 16 17 18 19 20 21 22 23 24 25 26 27 28 29 30 31 32 33 34 35 36 37 38 39 40 41 42 43 44 45 46 47 48 49 50
751
ASUS43 KDMX 300306
RWRIA

WEATHER ROUNDUP FOR IOWA
NATIONAL WEATHER SERVICE DES MOINES IA
1000 PM CDT MON MAY 29 2017

NOTE: "FAIR" INDICATES FEW OR NO CLOUDS BELOW 12,000 FEET WITH NO
SIGNIFICANT WEATHER AND/OR OBSTRUCTIONS TO VISIBILITY.

* - THESE STATIONS ARE NOT NWS STATIONS...THUS NOT UNDER NWS
QUALITY CONTROL.  THEY ALSO DO NOT REPORT WEATHER SUCH
AS PRECIPITATION OR FOG.

IAZ001>003-012>014-020>022-031>034-043>046-300400-
   NORTHWEST IOWA

CITY           SKY/WX    TMP DP  RH WIND       PRES   REMARKS
CARROLL *      CLEAR     61  45  55 NW8       30.00R
CHEROKEE *     CLEAR     55  43  63 N3        30.00S
DENISON *      CLEAR     59  43  55 W6        30.03R
LE MARS *      PTCLDY    57  43  58 CALM      30.01S
ORANGE CITY *  CLEAR     57  45  62 CALM      30.00S
SHELDON *      CLEAR     55  41  58 W3        29.98R
SIOUX CITY     CLEAR     57  42  57 CALM      30.01R
SPENCER        CLEAR     52  43  71 NW8       29.99R
STORM LAKE *   MOCLDY    59  41  51 NW9       30.00R
$$

IAZ055>058-069>071-079>083-090>094-300400-
   SOUTHWEST IOWA

CITY           SKY/WX    TMP DP  RH WIND       PRES   REMARKS
ATLANTIC *     CLEAR     61  43  51 NW8       30.02R
AUDUBON *      CLEAR     61  45  55 NW3       30.02R
CLARINDA *     CLEAR     64  41  42 N6        30.04R
COUNCIL BLFS * PTCLDY    61  43  51 N6        30.03R
CRESTON *      PTCLDY    61  43  51 NW10      30.02R
HARLAN  *      PTCLDY    57  43  58 NW7       30.06R
LAMONI         CLEAR     61  42  49 NW10      30.00R
RED OAK *      MOCLDY    63  43  48 NW5       30.02S
SHENANDOAH *   CLEAR     64  41  42 N5        30.03R
$$

IAZ047>049-059>061-072>074-084-300400-
   CENTRAL IOWA

CITY           SKY/WX    TMP DP  RH WIND       PRES   REMARKS
AMES           MOCLDY    60  47  61 NW6       29.97R
ANKENY *       PTCLDY    63  46  55 NW7       29.99R
BOONE *        CLEAR     61  46  59 NW10G16   29.98R
CHARITON *     PTCLDY    59  45  58 W7        29.98R
DES MOINES     PTCLDY    66  41  40 NW15      29.97R
GRINNELL*      CLEAR     58  45  60 NW5       29.98R
KNOXVILLE *    PTCLDY    61  43  51 W6        29.96R
MARSHALLTOWN   PTCLDY    55  46  71 NW7       29.96R
NEWTON *       MOCLDY    61  46  59 NW8       29.97R
PELLA *        PTCLDY    61  43  51 NW5       29.98R
PERRY *          N/A     62  39  42 NW8       29.99R
$$

IAZ004>006-015-016-023>025-035-036-300400-
   NORTH CENTRAL IOWA

CITY           SKY/WX    TMP DP  RH WIND       PRES   REMARKS
ALGONA *       MOCLDY    57  48  72 N16G25    29.98R
CLARION *      CLEAR     55  46  71 NW8       29.96S
ESTHERVILLE    PTCLDY    52  51  97 W7        29.97S
FORT DODGE *   CLEAR     57  45  62 W3        29.98S
MASON CITY     PTCLDY    54  46  74 W10       29.96R
FOREST CITY *    N/A     55  41  58 NW10      29.95S
WEBSTER CITY * PTCLDY    55  45  67 NW6       29.95S
IOWA FALLS *     N/A     58  47  68 NW7       29.97R
$$

IAZ007>011-017>019-026>030-037>042-050>054-066-300400-
   NORTHEAST IOWA

CITY           SKY/WX    TMP DP  RH WIND       PRES   REMARKS
CEDAR RAPIDS   CLEAR     59  46  62 NW8       29.94R
CHARLES CITY * PTCLDY    57  45  62 W9        29.93S
CLINTON *      CLEAR     59  47  64 W7        29.93R
DECORAH *      PTCLDY    57  46  67 W5G12     29.90R
DUBUQUE        CLEAR     58  45  62 NW8       29.92R
MONTICELLO *   PTCLDY    61  45  55 NW8       29.92R
OELWEIN *      PTCLDY    59  45  58 W13       29.94R
WATERLOO       PTCLDY    56  44  64 W7        29.94R
$$

IAZ064-065-067-068-078-300400-
   EAST CENTRAL IOWA

CITY           SKY/WX    TMP DP  RH WIND       PRES   REMARKS
DAVENPORT      PTCLDY    62  46  55 W6        29.93R
IOWA CITY      CLEAR     65  44  46 NW9       29.95R
MT. PLEASANT * PTCLDY    64  38  37 W6        29.95R
MUSCATINE *    MOCLDY    63  46  55 W6        29.94R
QUAD CITIES    CLEAR     63  45  51 W6        29.92R
$$

IAZ062-063-075>077-085>089-095>099-300400-
   SOUTHEAST IOWA

CITY           SKY/WX    TMP DP  RH WIND       PRES   REMARKS
BURLINGTON     CLEAR     64  42  44 W6        29.94R
FAIRFIELD *    PTCLDY    63  41  45 W6        29.95R
FORT MADISON * CLEAR     64  41  42 CALM      29.96R
KEOKUK *       CLEAR     59  48  67 W5        29.95R
OSKALOOSA *      N/A     61  43  52 NW7       29.97R
CENTERVILLE *    N/A     59  43  55 CALM      29.99S
OTTUMWA        CLEAR     61  42  49 W5        29.96R
WASHINGTON *   MOCLDY    63  46  55 W6        29.96R
$$

ABBREVIATIONS USED IN REMARKS
   TC - TEMPERATURES IN CELSIUS
  WCI - WIND CHILL INDEX
   HX - HEAT INDEX
  VSB - VISIBILITY
$$





USA.gov is the U.S. government's official web portal to all federal, state and local government web resources and services.